Time,TemperatureF,DewpointF,PressureIn,WindDirection,WindDirectionDegrees,WindSpeedMPH,WindSpeedGustMPH,Humidity,HourlyPrecipIn,Conditions,Clouds,dailyrainin,SolarRadiationWatts/m^2,SoftwareType,DateUTC
2013-05-31 00:02:00,42.0,34.0,-100.00,NNW,339,2.0,13.0,72,0.00,,,0.00,0.000000,,2013-05-31 07:02:00,
2013-05-31 00:11:00,42.0,34.0,-100.00,NNW,339,2.0,13.0,72,0.00,,,0.00,0.000000,,2013-05-31 07:11:00,
2013-05-31 00:32:00,41.0,34.0,-100.00,West,261,1.0,8.0,77,0.00,,,0.00,0.000000,,2013-05-31 07:32:00,
2013-05-31 00:42:00,41.0,34.0,-100.00,West,261,1.0,8.0,77,0.00,,,0.00,0.000000,,2013-05-31 07:42:00,
2013-05-31 00:52:00,41.0,34.0,-100.00,West,261,1.0,8.0,77,0.00,,,0.00,0.000000,,2013-05-31 07:52:00,
2013-05-31 01:01:00,41.0,34.0,-100.00,West,261,1.0,8.0,77,0.00,,,0.00,0.000000,,2013-05-31 08:01:00,
2013-05-31 01:11:00,41.0,34.0,-100.00,West,261,1.0,8.0,77,0.00,,,0.00,0.000000,,2013-05-31 08:11:00,
2013-05-31 01:32:00,41.0,35.0,-100.00,NE,49,0.0,8.0,78,0.00,,,0.00,0.000000,,2013-05-31 08:32:00,
2013-05-31 01:42:00,41.0,35.0,-100.00,NE,49,0.0,8.0,78,0.00,,,0.00,0.000000,,2013-05-31 08:42:00,
2013-05-31 01:52:00,41.0,35.0,-100.00,NE,49,0.0,8.0,78,0.00,,,0.00,0.000000,,2013-05-31 08:52:00,
2013-05-31 02:01:00,41.0,35.0,-100.00,NE,49,0.0,8.0,78,0.00,,,0.00,0.000000,,2013-05-31 09:01:00,
2013-05-31 02:11:00,41.0,35.0,-100.00,NE,49,0.0,8.0,78,0.00,,,0.00,0.000000,,2013-05-31 09:11:00,
2013-05-31 02:32:00,39.0,36.0,-100.00,SSW,211,0.0,5.0,88,0.00,,,0.00,0.000000,,2013-05-31 09:32:00,
2013-05-31 02:43:00,39.0,36.0,-100.00,SSW,211,0.0,5.0,88,0.00,,,0.00,0.000000,,2013-05-31 09:43:00,
2013-05-31 02:53:00,39.0,36.0,-100.00,SSW,211,0.0,5.0,88,0.00,,,0.00,0.000000,,2013-05-31 09:53:00,
2013-05-31 03:02:00,39.0,36.0,-100.00,SSW,211,0.0,5.0,88,0.00,,,0.00,0.000000,,2013-05-31 10:02:00,
2013-05-31 03:12:00,39.0,36.0,-100.00,SSW,211,0.0,5.0,88,0.00,,,0.00,0.000000,,2013-05-31 10:12:00,
2013-05-31 03:33:00,40.0,37.0,-100.00,West,276,0.0,4.0,88,0.00,,,0.00,0.000000,,2013-05-31 10:33:00,
2013-05-31 03:42:00,40.0,37.0,-100.00,West,276,0.0,4.0,88,0.00,,,0.00,0.000000,,2013-05-31 10:42:00,
2013-05-31 03:52:00,40.0,37.0,-100.00,West,276,0.0,4.0,88,0.00,,,0.00,0.000000,,2013-05-31 10:52:00,
2013-05-31 04:01:00,40.0,37.0,-100.00,West,276,0.0,4.0,88,0.00,,,0.00,0.000000,,2013-05-31 11:01:00,
2013-05-31 04:11:00,40.0,37.0,-100.00,West,276,0.0,4.0,88,0.00,,,0.00,0.000000,,2013-05-31 11:11:00,
2013-05-31 04:32:00,39.0,36.0,-100.00,NNW,343,0.0,2.0,89,0.00,,,0.00,0.000000,,2013-05-31 11:32:00,
2013-05-31 04:42:00,39.0,36.0,-100.00,NNW,343,0.0,2.0,89,0.00,,,0.00,0.000000,,2013-05-31 11:42:00,
2013-05-31 04:52:00,39.0,36.0,-100.00,NNW,343,0.0,2.0,89,0.00,,,0.00,0.000000,,2013-05-31 11:52:00,
2013-05-31 05:01:00,39.0,36.0,-100.00,NNW,343,0.0,2.0,89,0.00,,,0.00,0.000000,,2013-05-31 12:01:00,
2013-05-31 05:11:00,39.0,36.0,-100.00,NNW,343,0.0,2.0,89,0.00,,,0.00,0.000000,,2013-05-31 12:11:00,
2013-05-31 05:32:00,38.0,36.0,-100.00,WNW,289,0.0,3.0,91,0.00,,,0.00,0.000000,,2013-05-31 12:32:00,
2013-05-31 05:42:00,38.0,36.0,-100.00,WNW,289,0.0,3.0,91,0.00,,,0.00,0.000000,,2013-05-31 12:42:00,
2013-05-31 05:52:00,38.0,36.0,-100.00,WNW,289,0.0,3.0,91,0.00,,,0.00,0.000000,,2013-05-31 12:52:00,
2013-05-31 06:01:00,38.0,36.0,-100.00,WNW,289,0.0,3.0,91,0.00,,,0.00,0.000000,,2013-05-31 13:01:00,
2013-05-31 06:11:00,38.0,36.0,-100.00,WNW,289,0.0,3.0,91,0.00,,,0.00,0.000000,,2013-05-31 13:11:00,
2013-05-31 06:32:00,40.0,36.0,-100.00,SSE,166,1.0,3.0,84,0.00,,,0.00,26.000000,,2013-05-31 13:32:00,
2013-05-31 06:42:00,40.0,36.0,-100.00,SSE,166,1.0,3.0,84,0.00,,,0.00,26.000000,,2013-05-31 13:42:00,
2013-05-31 06:52:00,40.0,36.0,-100.00,SSE,166,1.0,3.0,84,0.00,,,0.00,26.000000,,2013-05-31 13:52:00,
2013-05-31 07:02:00,40.0,36.0,-100.00,SSE,166,1.0,3.0,84,0.00,,,0.00,26.000000,,2013-05-31 14:02:00,
2013-05-31 07:11:00,40.0,36.0,-100.00,SSE,166,1.0,3.0,84,0.00,,,0.00,26.000000,,2013-05-31 14:11:00,
2013-05-31 07:32:00,42.0,37.0,-100.00,SSW,211,0.0,3.0,83,0.00,,,0.00,33.000000,,2013-05-31 14:32:00,
2013-05-31 07:42:00,42.0,37.0,-100.00,SSW,211,0.0,3.0,83,0.00,,,0.00,33.000000,,2013-05-31 14:42:00,
2013-05-31 07:52:00,42.0,37.0,-100.00,SSW,211,0.0,3.0,83,0.00,,,0.00,33.000000,,2013-05-31 14:52:00,
2013-05-31 08:01:00,42.0,37.0,-100.00,SSW,211,0.0,3.0,83,0.00,,,0.00,33.000000,,2013-05-31 15:01:00,
2013-05-31 08:11:00,42.0,37.0,-100.00,SSW,211,0.0,3.0,83,0.00,,,0.00,33.000000,,2013-05-31 15:11:00,
2013-05-31 08:33:00,47.0,38.0,-100.00,NE,43,2.0,7.0,72,0.00,,,0.00,218.000000,,2013-05-31 15:33:00,
2013-05-31 08:43:00,47.0,38.0,-100.00,NE,43,2.0,7.0,72,0.00,,,0.00,218.000000,,2013-05-31 15:43:00,
2013-05-31 08:53:00,47.0,38.0,-100.00,NE,43,2.0,7.0,72,0.00,,,0.00,218.000000,,2013-05-31 15:53:00,
2013-05-31 09:03:00,47.0,38.0,-100.00,NE,43,2.0,7.0,72,0.00,,,0.00,218.000000,,2013-05-31 16:03:00,
2013-05-31 09:12:00,47.0,38.0,-100.00,NE,43,2.0,7.0,72,0.00,,,0.00,218.000000,,2013-05-31 16:12:00,
2013-05-31 09:33:00,49.0,39.0,-100.00,East,94,2.0,8.0,68,0.00,,,0.00,378.000000,,2013-05-31 16:33:00,
2013-05-31 09:42:00,49.0,39.0,-100.00,East,94,2.0,8.0,68,0.00,,,0.00,378.000000,,2013-05-31 16:42:00,
2013-05-31 09:52:00,49.0,39.0,-100.00,East,94,2.0,8.0,68,0.00,,,0.00,378.000000,,2013-05-31 16:52:00,
2013-05-31 10:02:00,49.0,39.0,-100.00,East,94,2.0,8.0,68,0.00,,,0.00,378.000000,,2013-05-31 17:02:00,
2013-05-31 10:12:00,49.0,39.0,-100.00,East,94,2.0,8.0,68,0.00,,,0.00,378.000000,,2013-05-31 17:12:00,
2013-05-31 10:42:00,54.0,40.0,-100.00,ENE,66,2.0,7.0,58,0.00,,,0.00,567.000000,,2013-05-31 17:42:00,
2013-05-31 10:52:00,54.0,40.0,-100.00,ENE,66,2.0,7.0,58,0.00,,,0.00,567.000000,,2013-05-31 17:52:00,
2013-05-31 11:01:00,54.0,40.0,-100.00,ENE,66,2.0,7.0,58,0.00,,,0.00,567.000000,,2013-05-31 18:01:00,
2013-05-31 11:11:00,54.0,40.0,-100.00,ENE,66,2.0,7.0,58,0.00,,,0.00,567.000000,,2013-05-31 18:11:00,
2013-05-31 11:42:00,58.0,41.0,-100.00,SE,140,2.0,7.0,54,0.00,,,0.00,859.000000,,2013-05-31 18:42:00,
2013-05-31 11:52:00,58.0,41.0,-100.00,SE,140,2.0,7.0,54,0.00,,,0.00,859.000000,,2013-05-31 18:52:00,
2013-05-31 12:01:00,58.0,41.0,-100.00,SE,140,2.0,7.0,54,0.00,,,0.00,859.000000,,2013-05-31 19:01:00,
2013-05-31 12:42:00,57.0,39.0,-100.00,NE,40,2.0,8.0,51,0.00,,,0.00,931.000000,,2013-05-31 19:42:00,
2013-05-31 12:52:00,57.0,39.0,-100.00,NE,40,2.0,8.0,51,0.00,,,0.00,931.000000,,2013-05-31 19:52:00,
2013-05-31 13:01:00,57.0,39.0,-100.00,NE,40,2.0,8.0,51,0.00,,,0.00,931.000000,,2013-05-31 20:01:00,
2013-05-31 13:11:00,57.0,39.0,-100.00,NE,40,2.0,8.0,51,0.00,,,0.00,931.000000,,2013-05-31 20:11:00,
2013-05-31 13:32:00,61.0,40.0,-100.00,SW,220,2.0,10.0,46,0.00,,,0.00,828.000000,,2013-05-31 20:32:00,
2013-05-31 13:42:00,61.0,40.0,-100.00,SW,220,2.0,10.0,46,0.00,,,0.00,828.000000,,2013-05-31 20:42:00,
2013-05-31 13:52:00,61.0,40.0,-100.00,SW,220,2.0,10.0,46,0.00,,,0.00,828.000000,,2013-05-31 20:52:00,
2013-05-31 14:01:00,61.0,40.0,-100.00,SW,220,2.0,10.0,46,0.00,,,0.00,828.000000,,2013-05-31 21:01:00,
2013-05-31 14:11:00,61.0,40.0,-100.00,SW,220,2.0,10.0,46,0.00,,,0.00,828.000000,,2013-05-31 21:11:00,
2013-05-31 14:33:00,62.0,40.0,-100.00,NE,56,3.0,9.0,44,0.00,,,0.00,948.000000,,2013-05-31 21:33:00,
2013-05-31 14:43:00,62.0,40.0,-100.00,NE,56,3.0,9.0,44,0.00,,,0.00,948.000000,,2013-05-31 21:43:00,
2013-05-31 14:54:00,62.0,40.0,-100.00,NE,56,3.0,9.0,44,0.00,,,0.00,948.000000,,2013-05-31 21:54:00,
2013-05-31 15:02:00,62.0,40.0,-100.00,NE,56,3.0,9.0,44,0.00,,,0.00,948.000000,,2013-05-31 22:02:00,
2013-05-31 15:12:00,62.0,40.0,-100.00,NE,56,3.0,9.0,44,0.00,,,0.00,948.000000,,2013-05-31 22:12:00,
2013-05-31 15:33:00,64.0,41.0,-100.00,NE,41,3.0,10.0,43,0.00,,,0.00,881.000000,,2013-05-31 22:33:00,
2013-05-31 15:42:00,64.0,41.0,-100.00,NE,41,3.0,10.0,43,0.00,,,0.00,881.000000,,2013-05-31 22:42:00,
2013-05-31 15:53:00,64.0,41.0,-100.00,NE,41,3.0,10.0,43,0.00,,,0.00,881.000000,,2013-05-31 22:53:00,
2013-05-31 16:02:00,64.0,41.0,-100.00,NE,41,3.0,10.0,43,0.00,,,0.00,881.000000,,2013-05-31 23:02:00,
2013-05-31 16:12:00,64.0,41.0,-100.00,NE,41,3.0,10.0,43,0.00,,,0.00,881.000000,,2013-05-31 23:12:00,
2013-05-31 16:32:00,66.0,42.0,-100.00,ENE,65,3.0,9.0,41,0.00,,,0.00,788.000000,,2013-05-31 23:32:00,
2013-05-31 16:42:00,66.0,42.0,-100.00,ENE,65,3.0,9.0,41,0.00,,,0.00,788.000000,,2013-05-31 23:42:00,
2013-05-31 16:52:00,66.0,42.0,-100.00,ENE,65,3.0,9.0,41,0.00,,,0.00,788.000000,,2013-05-31 23:52:00,
2013-05-31 17:01:00,66.0,42.0,-100.00,ENE,65,3.0,9.0,41,0.00,,,0.00,788.000000,,2013-06-01 00:01:00,
2013-05-31 17:11:00,66.0,42.0,-100.00,ENE,65,3.0,9.0,41,0.00,,,0.00,788.000000,,2013-06-01 00:11:00,
2013-05-31 17:32:00,63.0,42.0,-100.00,NE,52,3.0,12.0,47,0.00,,,0.00,573.000000,,2013-06-01 00:32:00,
2013-05-31 17:42:00,63.0,42.0,-100.00,NE,52,3.0,12.0,47,0.00,,,0.00,573.000000,,2013-06-01 00:42:00,
2013-05-31 17:52:00,63.0,42.0,-100.00,NE,52,3.0,12.0,47,0.00,,,0.00,573.000000,,2013-06-01 00:52:00,
2013-05-31 18:01:00,63.0,42.0,-100.00,NE,52,3.0,12.0,47,0.00,,,0.00,573.000000,,2013-06-01 01:01:00,
2013-05-31 18:11:00,63.0,42.0,-100.00,NE,52,3.0,12.0,47,0.00,,,0.00,573.000000,,2013-06-01 01:11:00,
2013-05-31 18:32:00,60.0,43.0,-100.00,NNE,17,4.0,11.0,53,0.00,,,0.00,321.000000,,2013-06-01 01:32:00,
2013-05-31 18:42:00,60.0,43.0,-100.00,NNE,17,4.0,11.0,53,0.00,,,0.00,321.000000,,2013-06-01 01:42:00,
2013-05-31 18:52:00,60.0,43.0,-100.00,NNE,17,4.0,11.0,53,0.00,,,0.00,321.000000,,2013-06-01 01:52:00,
2013-05-31 19:01:00,60.0,43.0,-100.00,NNE,17,4.0,11.0,53,0.00,,,0.00,321.000000,,2013-06-01 02:01:00,
2013-05-31 19:11:00,60.0,43.0,-100.00,NNE,17,4.0,11.0,53,0.00,,,0.00,321.000000,,2013-06-01 02:11:00,
2013-05-31 19:32:00,56.0,44.0,-100.00,NE,48,0.0,10.0,63,0.00,,,0.00,108.000000,,2013-06-01 02:32:00,
2013-05-31 19:42:00,56.0,44.0,-100.00,NE,48,0.0,10.0,63,0.00,,,0.00,108.000000,,2013-06-01 02:42:00,
2013-05-31 19:52:00,56.0,44.0,-100.00,NE,48,0.0,10.0,63,0.00,,,0.00,108.000000,,2013-06-01 02:52:00,
2013-05-31 20:01:00,56.0,44.0,-100.00,NE,48,0.0,10.0,63,0.00,,,0.00,108.000000,,2013-06-01 03:01:00,
2013-05-31 20:11:00,56.0,44.0,-100.00,NE,48,0.0,10.0,63,0.00,,,0.00,108.000000,,2013-06-01 03:11:00,
2013-05-31 20:33:00,54.0,44.0,-100.00,NNE,29,2.0,5.0,68,0.00,,,0.00,53.000000,,2013-06-01 03:33:00,
2013-05-31 20:43:00,54.0,44.0,-100.00,NNE,29,2.0,5.0,68,0.00,,,0.00,53.000000,,2013-06-01 03:43:00,
2013-05-31 20:53:00,54.0,44.0,-100.00,NNE,29,2.0,5.0,68,0.00,,,0.00,53.000000,,2013-06-01 03:53:00,
2013-05-31 21:02:00,54.0,44.0,-100.00,NNE,29,2.0,5.0,68,0.00,,,0.00,53.000000,,2013-06-01 04:02:00,
2013-05-31 21:12:00,54.0,44.0,-100.00,NNE,29,2.0,5.0,68,0.00,,,0.00,53.000000,,2013-06-01 04:12:00,
2013-05-31 21:33:00,51.0,42.0,-100.00,West,281,2.0,5.0,72,0.00,,,0.00,15.000000,,2013-06-01 04:33:00,
2013-05-31 21:42:00,51.0,42.0,-100.00,West,281,2.0,5.0,72,0.00,,,0.00,15.000000,,2013-06-01 04:42:00,
2013-05-31 21:53:00,51.0,42.0,-100.00,West,281,2.0,5.0,72,0.00,,,0.00,15.000000,,2013-06-01 04:53:00,
2013-05-31 22:02:00,51.0,42.0,-100.00,West,281,2.0,5.0,72,0.00,,,0.00,15.000000,,2013-06-01 05:02:00,
2013-05-31 22:12:00,51.0,42.0,-100.00,West,281,2.0,5.0,72,0.00,,,0.00,15.000000,,2013-06-01 05:12:00,
2013-05-31 22:32:00,50.0,43.0,-100.00,WSW,246,1.0,3.0,77,0.00,,,0.00,0.000000,,2013-06-01 05:32:00,
2013-05-31 22:43:00,50.0,43.0,-100.00,WSW,246,1.0,3.0,77,0.00,,,0.00,0.000000,,2013-06-01 05:43:00,
2013-05-31 22:52:00,50.0,43.0,-100.00,WSW,246,1.0,3.0,77,0.00,,,0.00,0.000000,,2013-06-01 05:52:00,
2013-05-31 23:01:00,50.0,43.0,-100.00,WSW,246,1.0,3.0,77,0.00,,,0.00,0.000000,,2013-06-01 06:01:00,
2013-05-31 23:12:00,50.0,43.0,-100.00,WSW,246,1.0,3.0,77,0.00,,,0.00,0.000000,,2013-06-01 06:12:00,
2013-05-31 23:32:00,49.0,42.0,-100.00,West,275,1.0,3.0,78,0.00,,,0.00,0.000000,,2013-06-01 06:32:00,
2013-05-31 23:42:00,49.0,42.0,-100.00,West,275,1.0,3.0,78,0.00,,,0.00,0.000000,,2013-06-01 06:42:00,
2013-05-31 23:52:00,49.0,42.0,-100.00,West,275,1.0,3.0,78,0.00,,,0.00,0.000000,,2013-06-01 06:52:00,